RH
34 34 32 30 29 29 30 29 29 30 30 29 28 27 25 23 21 20 16 15 14 10 8 6 5 7 9 10 12 14 17 24 30 29 30 27 28 27 19 21 24 25 27 29 28
34 34 33 33 31 29 30 33 35 36 35 33 31 29 28 25 21 19 15 13 11 10 7 6 8 11 11 11 13 13 16 24 27 30 31 30 28 26 17 22 23 22 20 22 21
36 35 35 34 34 33 32 36 39 39 36 33 31 31 30 26 22 19 14 12 10 10 8 10 10 12 13 14 14 15 16 21 25 30 28 29 28 24 15 17 21 22 21 22 18
39 38 38 38 37 39 41 42 41 40 39 37 34 34 31 28 26 22 18 15 11 9 11 12 13 15 15 18 18 18 16 21 21 23 28 28 26 25 16 16 17 19 22 22 19
55 53 51 51 51 50 49 47 46 44 41 40 38 35 33 28 23 27 21 20 16 9 9 16 17 17 17 17 20 20 17 19 18 18 23 23 22 22 16 18 16 16 19 20 19
89 82 76 70 65 61 60 57 55 54 49 46 42 37 32 30 25 24 22 22 19 16 12 15 18 19 17 16 18 17 18 18 18 19 18 17 17 17 15 18 17 18 19 20 19
99 98 94 92 86 83 75 73 71 67 62 56 47 37 32 31 31 26 24 26 21 17 17 16 19 20 20 18 18 16 18 18 17 19 20 18 19 17 17 20 20 23 24 25 24
96 96 94 94 95 93 90 86 84 78 72 66 59 49 38 38 35 35 28 26 25 22 21 21 24 22 20 20 19 21 21 22 16 16 19 20 20 17 20 21 23 28 29 29 28
97 95 95 90 93 90 92 89 89 85 81 72 65 58 52 41 38 34 31 29 26 25 25 24 27 26 24 24 26 25 26 22 18 17 23 23 25 23 24 25 26 30 30 31 30
97 96 96 95 92 91 90 90 85 84 78 76 70 67 58 50 42 37 34 28 27 29 28 27 29 28 25 27 33 28 28 23 24 25 27 30 30 30 29 29 28 31 31 32 32
91 93 96 96 95 92 92 90 89 85 82 77 71 61 57 49 51 44 40 38 33 36 35 32 34 34 28 26 26 26 25 29 30 32 33 33 32 29 30 31 30 35 35 33 36
90 93 96 96 96 93 91 93 88 87 80 76 71 63 62 55 54 57 53 46 44 44 43 42 40 33 30 29 29 29 27 30 31 33 32 31 31 30 29 27 28 33 36 36 37
68 88 96 96 91 88 90 92 92 88 82 66 63 58 62 66 56 56 58 60 50 46 44 42 34 30 30 28 29 31 31 30 31 32 31 31 33 33 32 30 31 35 36 36 37
66 68 68 79 85 87 84 92 94 88 90 64 58 53 54 65 54 55 58 58 55 48 46 41 36 32 36 33 28 31 32 32 32 32 31 28 34 30 31 30 36 38 38 38 40
70 62 64 71 76 80 80 80 91 86 95 62 58 51 51 59 53 51 62 62 59 56 51 43 37 32 36 37 34 33 34 33 34 35 35 35 38 32 29 36 39 40 40 41 41
71 70 70 69 70 72 71 79 83 92 89 64 57 54 53 56 55 52 55 58 63 61 54 45 41 39 36 36 36 34 36 37 40 41 52 41 40 29 29 26 37 40 42 43 46
67 65 69 71 70 75 76 83 84 86 54 51 54 56 57 54 55 57 57 55 62 64 57 55 49 44 43 43 41 42 46 62 59 59 49 36 39 28 27 31 36 40 46 50 48
57 64 74 73 71 70 87 86 84 50 45 41 48 64 64 57 50 56 59 56 54 55 54 53 49 47 41 41 45 46 49 60 64 63 47 37 47 39 37 39 42 44 48 52 52
40 57 70 70 73 85 91 90 68 46 39 41 42 54 64 61 55 53 57 53 46 48 52 54 49 41 43 46 48 50 52 47 54 50 63 47 45 49 48 50 52 51 52 54 54
28 39 52 65 87 93 99 97 67 49 41 48 57 50 53 59 63 60 59 45 46 44 45 46 53 43 41 49 47 52 53 63 68 66 59 46 42 50 52 53 56 57 56 58 56
21 30 31 64 88 90 98 94 67 46 51 63 74 65 54 52 57 68 68 59 52 46 51 45 56 50 48 44 43 51 55 60 62 63 66 58 55 44 49 51 56 59 61 60 60
27 26 31 47 86 92 97 93 68 58 62 68 69 59 56 65 67 63 80 69 76 68 59 48 56 57 52 51 47 48 48 57 76 70 73 67 59 50 50 53 58 62 63 64 66
34 33 29 42 59 79 98 91 88 74 69 77 85 69 73 78 78 71 73 84 88 88 86 69 69 72 58 62 57 58 52 55 63 67 65 80 56 49 51 60 67 67 64 67 71
36 38 41 41 36 46 84 98 91 81 83 83 86 78 84 84 78 78 84 91 96 94 83 87 75 66 61 59 62 67 61 59 64 75 60 66 57 52 62 74 79 78 80 84 87
38 40 37 43 52 54 66 83 95 86 84 80 97 76 72 89 83 85 91 93 92 96 98 98 99 92 74 69 71 83 76 71 77 81 86 68 77 64 67 79 80 86 91 90 85
43 44 43 39 36 45 59 94 88 93 82 87 95 79 89 86 84 92 95 96 90 85 93 95 98 96 95 77 74 83 81 80 82 82 84 82 75 67 72 78 81 78 82 78 75
42 44 52 43 49 73 54 60 80 89 89 85 89 88 88 78 86 83 82 85 80 82 85 89 88 88 85 75 75 78 70 70 72 69 66 74 66 63 68 69 66 69 67 73 70